SCP
0 0 0 0 0 0 0 0 0 0 0 0 0 0 0 0 0 0 0 0 0 0 0 0 0 0 0 0 0 0 0 0 0 0 0 0 0 0 0 0 0 0 0
0 0 0 0 0 0 0 0 0 0 0 0 0 0 0 0 0 0 0 0 0 0 0 0 0 0 0 0 0 0 0 0 0 0 0 0 0 0 0 0 0 0 0
0 0 0 0 0 0 0 0 0 0 0 0 0 0 0 0 0 0 0 0 0 0 0 0 0 0 0 0 0 0 0 0 0 0 0 0 0 0 0 0 0 0 0
0 0 0 0 0 0 0 0 0 0 0 0 0 0 0 0 0 0 0 0 0 0 0 0 0 0 0 0 0 0 0 0 0 0 0 0 0 0 0 0 0 0 0
0 0 0 0 0 0 0 0 0 0 0 0 0 0 0 0 0 0 0 0 0 0 0 0 0 0 0 0 0 0 0 0 0 0 0 0 0 0 0 0 0 0 0
0 0 0 0 0 0 0 0 0 0 0 0 0 0 0 0 0 0 0 0 0 0 0 0 0 0 0 0 0 0 0 0 0 0 0 0 0 0 0 0 0 0 0
-0 -0 0 0 0 0 0 0 0 0 0 0 0 0 0 0 0 0 0 0 0 0 0 0 0 0 0 0 0 0 0 0 0 0 0 0 0 0 0 0 0 0 0
0 0 0 0 0 0 0 0 0 0 0 0 0 0 0 0 0 0 0 0 0 0 0 0 0 0 0 0 0 0 0 0 0 0 0 0 0 0 0 0 0 0 0
0 0 0 0 0 0 0 0 0 0 0 0 0 0 0 0 0 0 0 0 0 0 0 0 0 0 0 0 0 0 0 0 0 0 0 0 0 0 0 0 0 0 0
0 0 0 0 0 0 0 0 0 0 0 0 0 0 0 0 0 0 0 0 0 0 0 0 0 0 0 0 0 0 0 0 0 0 0 0 0 0 0 0 0 0 0
0 0 0 0 0 0 0 0 0 0 0 0 0 0 0 0 0 0 0 0 0 0 0 0 0 0 0 0 0 0 0 0 0 0 0 0 0 0 0 0 0 0 0
0 0 0 0 0 0 0 0 0 0 0 0 0 0 0 0 0 0 0 0 0 0 0 0 0 0 0 0 0 0 0 0 0 0 0 0 0 0 0 0 0 0 0
0 0 0 0 0 0 0 0 0 0 0 0 0 0 0 0 0 0 0 0 0 0 0 0 0 0 0 0 0 0 0 0 0 0 0 0 0 0 0 0 0 0 0
0 0 0 0 0 0 0 0 0 0 0 0 0 0 0 0 0 0 0 0 0 0 0 0 0 0 0 0 0 0 0 0 0 0 0 0 0 0 0 0 0 0 0
0 0 0 0 0 0 0 0 0 0 0 0 0 0 0 0 0 0 0 0 0 0 0 0 0 0 0 0 0 0 0 0 0 0 0 0 0 0 0 0 0 0 0
0 0 0 0 0 0 0 0 0 0 0 0 0 0 0 0 0 0 0 0 0 0 0 0 0 0 0 0 0 0 0 0 0 0 0 0 0 0 0 0 0 0 0
0 0 0 0 0 0 0 0 0 0 0 0 0 0 0 0 0 0 0 0 0 0 0 0 0 0 0 0 0 0 0 0 0 0 0 0 0 0 0 0 0 0 0
0 0 0 0 0 0 0 0 0 0 0 0 0 0 0 0 0 0 0 0 0 0 0 0 0 0 0 0 0 0 0 0 0 0 0 0 0 0 0 0 0 0 0
0 0 0 0 0 0 0 0 0 0 0 0 0 0 0 0 0 0 0 0 0 0 0 0 0 0 0 0 0 0 0 0 0 0 0 0 0 0 0 0 0 0 0
0 0 0 0 0 0 0 0 0 0 0 0 0 0 0 0 0 0 0 0 0 0 0 0 0 0 0 0 0 0 0 0 0 0 0 0 0 0 0 0 0 0 0
0 0 0 0 0 0 0 0 0 0 0 0 0 0 0 0 0 0 0 0 0 0 0 0 0 0 0 0 0 0 0 0 0 0 0 0 0 0 0 0 0 0 0
0 0 0 0 0 0 0 0 0 0 0 0 0 0 0 0 0 0 0 0 0 0 0 0 0 0 0 0 0 0 0 0 0 0 0 0 0 0 0 0 0 0 0
0 0 0 0 0 0 0 0 0 0 0 0 0 0 0 0 0 0 0 0 0 0 0 0 0 0 0 0 0 0 0 0 0 0 0 0 0 0 0 0 0 0 0
-0 -0 0 0 0 0 0 0 0 0 0 0 0 0 0 0 0 0 0 0 0 0 0 0 0 0 0 0 0 0 0 0 0 0 0 0 0 0 0 0 0 0 0
0 0 0 0 0 0 0 0 0 0 0 0 0 0 0 0 0 0 0 0 0 0 0 0 0 0 0 0 0 0 0 0 0 0 0 0 0 0 0 0 0 0 0
0 0 0 0 0 0 0 0 0 0 0 0 0 0 0 0 0 0 0 0 0 0 0 0 0 0 0 0 0 0 0 0 0 0 0 0 0 0 0 0 0 0 0
Wind_Speed_500mb
80 80 70 59 51 53 46 40 27 18 21 30 25 20 19 16 15 15 17 20 22 23 25 25 25 24 25 26 25 27 30 34 40 46 47 50 55 57 54 52 55 57 62
55 56 54 55 56 44 44 34 24 20 24 24 22 19 19 20 19 20 22 25 27 28 30 30 30 31 31 29 28 30 33 37 42 48 51 54 56 57 59 55 55 56 64
47 47 46 40 47 26 21 18 21 24 24 23 19 19 23 22 24 27 29 30 31 33 36 37 38 37 36 35 34 35 37 39 42 48 53 56 59 60 60 60 61 59 64
41 39 47 40 25 17 18 19 23 24 22 21 22 24 25 27 31 34 35 35 37 40 42 44 43 42 43 41 41 42 41 40 40 46 51 56 59 60 64 71 70 68 69
50 50 35 28 22 19 22 22 24 25 26 24 24 27 30 34 37 39 40 41 44 46 49 50 49 50 50 48 48 46 46 41 43 47 51 55 58 62 64 69 75 80 76
39 32 32 26 15 19 21 23 26 26 26 26 28 33 37 40 41 44 47 48 50 54 55 56 55 57 56 53 52 50 51 46 46 49 51 55 55 59 62 66 72 79 87
35 32 26 20 22 22 25 27 27 28 31 33 35 38 41 43 45 50 53 53 56 58 59 59 61 63 61 57 55 54 54 50 49 53 52 53 56 56 60 66 66 71 75
26 22 27 29 27 25 26 28 32 36 39 39 40 43 46 46 51 55 57 60 61 61 62 62 65 66 64 60 59 60 56 55 52 52 53 50 52 56 58 61 65 72 74
20 25 27 25 25 28 33 34 38 41 44 48 45 49 53 50 55 57 60 66 65 68 66 67 68 69 63 62 68 65 61 60 53 54 55 51 51 53 57 61 60 69 81
24 22 25 28 31 35 37 42 45 45 46 50 53 54 56 56 53 58 62 71 75 75 71 70 69 71 68 68 71 70 69 61 56 54 50 49 49 52 56 58 60 62 66
24 27 29 32 36 38 43 44 42 46 50 53 56 53 56 58 58 63 68 73 77 77 79 76 72 68 72 72 71 72 69 57 57 54 49 47 49 52 53 54 54 56 61
24 25 27 31 35 38 40 40 43 48 53 55 59 62 60 61 63 66 70 74 75 83 86 82 77 71 67 69 63 59 61 65 63 56 50 48 47 50 52 52 51 49 51
16 19 22 25 30 35 39 42 48 52 58 61 63 70 70 67 70 72 75 76 77 82 87 86 77 76 71 64 58 58 67 72 67 55 51 49 47 50 52 50 50 51 47
22 26 29 33 37 42 47 50 55 57 62 66 69 75 78 77 76 74 74 75 76 78 80 77 81 76 75 69 66 60 73 73 63 56 52 49 47 49 50 50 51 54 55
28 31 35 39 42 45 48 51 56 56 60 67 68 71 75 76 72 73 74 75 74 71 71 73 75 79 81 79 77 69 74 76 68 59 53 49 48 48 47 48 49 52 51
34 37 41 43 44 46 49 48 46 52 50 54 59 65 68 73 71 70 71 72 66 61 65 74 69 74 82 83 83 79 73 72 66 58 52 48 45 45 46 45 46 46 47
39 37 36 37 39 41 43 49 54 48 56 54 56 59 64 71 69 67 66 64 68 69 70 76 84 79 78 77 81 80 78 70 61 54 50 45 42 44 44 42 41 41 38
35 38 38 39 44 48 51 56 61 67 69 67 62 70 73 75 76 74 72 67 69 65 85 89 89 85 85 77 71 66 69 68 58 49 45 43 44 38 39 36 35 35 32
37 40 43 47 52 57 62 65 69 74 79 85 87 81 79 83 86 83 76 72 73 74 72 88 92 92 85 80 76 65 60 60 51 42 45 43 36 35 33 31 28 27 23
44 49 54 58 62 66 70 75 79 83 88 92 95 95 94 93 93 93 87 78 73 73 69 77 82 86 88 81 75 73 64 57 47 45 42 38 32 28 25 23 20 17 16
59 62 67 70 73 77 79 82 84 87 89 91 91 89 85 83 87 84 82 81 75 70 68 66 69 73 73 81 79 70 62 50 46 42 38 31 25 21 19 15 12 10 11
67 71 74 77 80 81 82 83 84 85 87 90 92 89 83 81 79 77 76 74 73 67 62 63 62 64 63 62 73 73 59 48 44 40 34 26 18 17 12 9 7 6 7
71 74 76 78 80 82 83 82 82 83 83 83 83 85 83 81 79 78 76 71 69 67 61 56 56 54 52 50 53 46 40 36 32 30 24 16 13 11 7 5 2 2 3
75 77 79 79 78 79 79 80 80 79 80 81 82 81 79 77 75 74 71 68 65 61 55 50 44 38 34 37 40 36 32 31 29 24 18 17 16 12 7 4 4 3 3
74 76 77 78 79 81 82 81 80 79 78 77 77 76 75 74 73 70 68 64 61 54 43 35 30 30 31 33 32 29 30 29 26 24 24 25 20 14 9 7 7 7 6
72 74 76 79 80 81 81 82 82 80 79 78 75 74 72 72 70 68 64 58 49 38 29 22 20 19 21 23 25 29 28 28 26 28 31 26 19 14 12 11 12 11 10
Wind_Direction_500mb
212 212 200 197 183 180 175 156 173 204 253 273 253 232 231 239 262 281 288 296 297 298 295 294 293 297 298 299 305 313 316 315 314 318 324 326 326 328 328 331 333 334 332
195 187 189 185 175 160 152 167 213 249 250 232 230 232 243 255 268 277 282 287 293 293 288 288 289 289 289 292 298 304 306 309 310 316 323 326 326 325 325 328 330 333 332
190 178 166 160 139 147 192 206 247 238 228 235 234 245 253 263 273 274 278 283 286 286 285 284 282 284 286 289 292 296 299 301 307 312 319 324 323 323 323 325 329 333 334
158 146 136 148 160 185 209 228 234 236 240 240 242 253 263 268 270 274 280 282 281 280 279 278 280 282 281 284 286 290 292 294 301 308 314 318 319 322 324 326 328 330 336
149 145 145 164 188 214 230 229 232 241 246 248 258 268 273 272 274 277 279 279 278 278 279 281 281 279 278 281 282 283 285 291 299 304 309 314 317 320 324 326 327 329 334
152 152 173 193 238 245 233 229 250 255 261 269 272 272 271 275 277 279 280 280 279 281 282 282 280 280 281 281 281 283 285 292 295 298 307 310 315 317 320 324 327 330 332
172 185 202 250 262 252 234 250 263 269 273 274 272 275 278 279 279 279 281 282 282 282 281 281 281 280 279 278 278 278 280 287 290 294 302 308 309 313 318 322 326 325 326
199 226 255 264 257 242 255 273 280 277 276 276 278 280 280 281 279 280 282 282 282 284 284 284 280 279 277 277 275 273 275 277 280 286 295 300 307 314 317 320 323 321 320
264 281 280 266 250 256 269 281 285 280 283 284 282 279 279 279 278 280 283 285 287 288 287 284 282 280 280 277 272 271 272 271 275 282 292 299 305 309 312 316 319 321 324
280 281 264 257 262 271 280 283 281 281 279 277 279 280 280 282 281 285 286 285 286 289 289 286 283 282 281 276 270 270 268 269 270 275 282 289 297 305 310 315 318 321 323
276 280 276 273 272 278 282 285 280 278 280 281 282 284 284 286 286 285 285 286 289 290 287 286 285 283 280 276 270 266 269 270 267 271 276 283 294 302 308 311 313 317 320
293 290 285 282 281 280 281 284 287 286 286 287 287 285 283 283 286 287 287 287 288 287 286 287 286 285 278 272 263 259 259 263 269 269 274 283 293 300 303 307 309 313 319
318 309 302 301 296 293 291 289 287 284 283 284 286 286 288 289 289 288 288 288 287 284 285 286 286 282 278 271 255 250 252 257 267 265 273 281 288 295 300 306 310 314 318
316 308 300 292 287 285 284 285 285 288 292 293 295 297 300 299 298 298 294 290 287 284 284 282 283 280 277 270 263 246 249 255 264 270 274 280 288 295 302 308 312 315 317
307 302 301 302 303 302 302 303 303 304 302 302 303 302 303 303 305 303 301 296 292 287 282 276 272 268 264 260 263 258 254 257 262 268 272 278 285 293 302 306 311 315 318
312 311 310 310 309 310 309 308 305 306 306 307 310 312 313 310 311 310 307 303 296 292 287 284 276 267 263 262 261 262 259 257 259 265 268 273 283 295 300 304 309 313 317
323 321 321 322 323 323 320 318 319 316 318 317 315 314 311 312 311 307 302 294 286 286 274 274 276 273 271 268 264 262 260 259 259 261 264 271 282 291 297 303 306 310 314
333 330 329 328 325 323 323 321 319 316 314 312 312 313 312 310 308 307 305 298 289 277 271 274 275 275 274 273 270 264 256 252 253 255 259 268 279 289 296 301 304 306 310
332 328 326 326 325 322 318 316 314 313 313 313 312 310 310 308 307 307 306 300 295 289 276 273 270 274 276 275 269 261 249 246 249 251 258 267 279 286 293 297 300 304 313
329 328 326 324 320 318 318 317 317 316 316 316 315 316 316 313 311 310 308 304 298 292 286 272 277 275 271 272 268 254 241 239 246 251 258 267 275 283 289 292 292 293 304
327 326 325 325 324 323 323 321 320 319 318 317 317 318 319 316 314 311 309 306 302 298 292 284 277 273 274 268 262 243 232 238 245 246 254 262 264 274 279 284 288 299 311
332 331 329 328 327 326 326 325 324 323 322 321 319 318 318 315 313 311 308 305 303 300 292 284 278 276 272 264 253 231 228 237 238 240 243 238 241 249 246 246 260 284 311
336 335 334 333 332 330 329 328 327 325 323 322 322 322 323 323 321 319 315 311 306 301 296 285 280 279 279 267 234 229 237 242 239 234 223 215 218 213 206 218 235 304 339
340 338 337 335 334 333 332 332 332 331 331 329 328 326 325 323 321 319 318 315 310 304 296 289 281 272 263 236 226 231 233 228 222 207 192 185 177 165 160 160 129 100 33
343 342 342 341 340 339 337 336 335 333 332 331 329 328 327 326 324 322 320 317 313 308 304 294 276 259 245 235 230 223 217 210 195 181 172 166 160 150 138 128 111 92 63
346 345 344 343 341 340 338 337 335 334 333 332 330 329 327 326 325 323 321 317 312 307 302 286 262 246 232 220 213 205 194 182 172 166 164 160 156 147 143 129 115 104 87
Wind_Speed_850mb
80 80 70 59 51 53 46 40 27 18 21 30 25 20 19 16 15 15 17 20 22 23 25 25 25 24 25 26 25 27 30 34 40 46 47 50 55 57 54 52 55 57 62
55 56 54 55 56 44 44 34 24 20 24 24 22 19 19 20 19 20 22 25 27 28 30 30 30 31 31 29 28 30 33 37 42 48 51 54 56 57 59 55 55 56 64
47 47 46 40 47 26 21 18 21 24 24 23 19 19 23 22 24 27 29 30 31 33 36 37 38 37 36 35 34 35 37 39 42 48 53 56 59 60 60 60 61 59 64
41 39 47 40 25 17 18 19 23 24 22 21 22 24 25 27 31 34 35 35 37 40 42 44 43 42 43 41 41 42 41 40 40 46 51 56 59 60 64 71 70 68 69
50 50 35 28 22 19 22 22 24 25 26 24 24 27 30 34 37 39 40 41 44 46 49 50 49 50 50 48 48 46 46 41 43 47 51 55 58 62 64 69 75 80 76
39 32 32 26 15 19 21 23 26 26 26 26 28 33 37 40 41 44 47 48 50 54 55 56 55 57 56 53 52 50 51 46 46 49 51 55 55 59 62 66 72 79 87
35 32 26 20 22 22 25 27 27 28 31 33 35 38 41 43 45 50 53 53 56 58 59 59 61 63 61 57 55 54 54 50 49 53 52 53 56 56 60 66 66 71 75
26 22 27 29 27 25 26 28 32 36 39 39 40 43 46 46 51 55 57 60 61 61 62 62 65 66 64 60 59 60 56 55 52 52 53 50 52 56 58 61 65 72 74
20 25 27 25 25 28 33 34 38 41 44 48 45 49 53 50 55 57 60 66 65 68 66 67 68 69 63 62 68 65 61 60 53 54 55 51 51 53 57 61 60 69 81
24 22 25 28 31 35 37 42 45 45 46 50 53 54 56 56 53 58 62 71 75 75 71 70 69 71 68 68 71 70 69 61 56 54 50 49 49 52 56 58 60 62 66
24 27 29 32 36 38 43 44 42 46 50 53 56 53 56 58 58 63 68 73 77 77 79 76 72 68 72 72 71 72 69 57 57 54 49 47 49 52 53 54 54 56 61
24 25 27 31 35 38 40 40 43 48 53 55 59 62 60 61 63 66 70 74 75 83 86 82 77 71 67 69 63 59 61 65 63 56 50 48 47 50 52 52 51 49 51
16 19 22 25 30 35 39 42 48 52 58 61 63 70 70 67 70 72 75 76 77 82 87 86 77 76 71 64 58 58 67 72 67 55 51 49 47 50 52 50 50 51 47
22 26 29 33 37 42 47 50 55 57 62 66 69 75 78 77 76 74 74 75 76 78 80 77 81 76 75 69 66 60 73 73 63 56 52 49 47 49 50 50 51 54 55
28 31 35 39 42 45 48 51 56 56 60 67 68 71 75 76 72 73 74 75 74 71 71 73 75 79 81 79 77 69 74 76 68 59 53 49 48 48 47 48 49 52 51
34 37 41 43 44 46 49 48 46 52 50 54 59 65 68 73 71 70 71 72 66 61 65 74 69 74 82 83 83 79 73 72 66 58 52 48 45 45 46 45 46 46 47
39 37 36 37 39 41 43 49 54 48 56 54 56 59 64 71 69 67 66 64 68 69 70 76 84 79 78 77 81 80 78 70 61 54 50 45 42 44 44 42 41 41 38
35 38 38 39 44 48 51 56 61 67 69 67 62 70 73 75 76 74 72 67 69 65 85 89 89 85 85 77 71 66 69 68 58 49 45 43 44 38 39 36 35 35 32
37 40 43 47 52 57 62 65 69 74 79 85 87 81 79 83 86 83 76 72 73 74 72 88 92 92 85 80 76 65 60 60 51 42 45 43 36 35 33 31 28 27 23
44 49 54 58 62 66 70 75 79 83 88 92 95 95 94 93 93 93 87 78 73 73 69 77 82 86 88 81 75 73 64 57 47 45 42 38 32 28 25 23 20 17 16
59 62 67 70 73 77 79 82 84 87 89 91 91 89 85 83 87 84 82 81 75 70 68 66 69 73 73 81 79 70 62 50 46 42 38 31 25 21 19 15 12 10 11
67 71 74 77 80 81 82 83 84 85 87 90 92 89 83 81 79 77 76 74 73 67 62 63 62 64 63 62 73 73 59 48 44 40 34 26 18 17 12 9 7 6 7
71 74 76 78 80 82 83 82 82 83 83 83 83 85 83 81 79 78 76 71 69 67 61 56 56 54 52 50 53 46 40 36 32 30 24 16 13 11 7 5 2 2 3
75 77 79 79 78 79 79 80 80 79 80 81 82 81 79 77 75 74 71 68 65 61 55 50 44 38 34 37 40 36 32 31 29 24 18 17 16 12 7 4 4 3 3
74 76 77 78 79 81 82 81 80 79 78 77 77 76 75 74 73 70 68 64 61 54 43 35 30 30 31 33 32 29 30 29 26 24 24 25 20 14 9 7 7 7 6
72 74 76 79 80 81 81 82 82 80 79 78 75 74 72 72 70 68 64 58 49 38 29 22 20 19 21 23 25 29 28 28 26 28 31 26 19 14 12 11 12 11 10
Wind_Direction_850mb
212 212 200 197 183 180 175 156 173 204 253 273 253 232 231 239 262 281 288 296 297 298 295 294 293 297 298 299 305 313 316 315 314 318 324 326 326 328 328 331 333 334 332
195 187 189 185 175 160 152 167 213 249 250 232 230 232 243 255 268 277 282 287 293 293 288 288 289 289 289 292 298 304 306 309 310 316 323 326 326 325 325 328 330 333 332
190 178 166 160 139 147 192 206 247 238 228 235 234 245 253 263 273 274 278 283 286 286 285 284 282 284 286 289 292 296 299 301 307 312 319 324 323 323 323 325 329 333 334
158 146 136 148 160 185 209 228 234 236 240 240 242 253 263 268 270 274 280 282 281 280 279 278 280 282 281 284 286 290 292 294 301 308 314 318 319 322 324 326 328 330 336
149 145 145 164 188 214 230 229 232 241 246 248 258 268 273 272 274 277 279 279 278 278 279 281 281 279 278 281 282 283 285 291 299 304 309 314 317 320 324 326 327 329 334
152 152 173 193 238 245 233 229 250 255 261 269 272 272 271 275 277 279 280 280 279 281 282 282 280 280 281 281 281 283 285 292 295 298 307 310 315 317 320 324 327 330 332
172 185 202 250 262 252 234 250 263 269 273 274 272 275 278 279 279 279 281 282 282 282 281 281 281 280 279 278 278 278 280 287 290 294 302 308 309 313 318 322 326 325 326
199 226 255 264 257 242 255 273 280 277 276 276 278 280 280 281 279 280 282 282 282 284 284 284 280 279 277 277 275 273 275 277 280 286 295 300 307 314 317 320 323 321 320
264 281 280 266 250 256 269 281 285 280 283 284 282 279 279 279 278 280 283 285 287 288 287 284 282 280 280 277 272 271 272 271 275 282 292 299 305 309 312 316 319 321 324
280 281 264 257 262 271 280 283 281 281 279 277 279 280 280 282 281 285 286 285 286 289 289 286 283 282 281 276 270 270 268 269 270 275 282 289 297 305 310 315 318 321 323
276 280 276 273 272 278 282 285 280 278 280 281 282 284 284 286 286 285 285 286 289 290 287 286 285 283 280 276 270 266 269 270 267 271 276 283 294 302 308 311 313 317 320
293 290 285 282 281 280 281 284 287 286 286 287 287 285 283 283 286 287 287 287 288 287 286 287 286 285 278 272 263 259 259 263 269 269 274 283 293 300 303 307 309 313 319
318 309 302 301 296 293 291 289 287 284 283 284 286 286 288 289 289 288 288 288 287 284 285 286 286 282 278 271 255 250 252 257 267 265 273 281 288 295 300 306 310 314 318
316 308 300 292 287 285 284 285 285 288 292 293 295 297 300 299 298 298 294 290 287 284 284 282 283 280 277 270 263 246 249 255 264 270 274 280 288 295 302 308 312 315 317
307 302 301 302 303 302 302 303 303 304 302 302 303 302 303 303 305 303 301 296 292 287 282 276 272 268 264 260 263 258 254 257 262 268 272 278 285 293 302 306 311 315 318
312 311 310 310 309 310 309 308 305 306 306 307 310 312 313 310 311 310 307 303 296 292 287 284 276 267 263 262 261 262 259 257 259 265 268 273 283 295 300 304 309 313 317
323 321 321 322 323 323 320 318 319 316 318 317 315 314 311 312 311 307 302 294 286 286 274 274 276 273 271 268 264 262 260 259 259 261 264 271 282 291 297 303 306 310 314
333 330 329 328 325 323 323 321 319 316 314 312 312 313 312 310 308 307 305 298 289 277 271 274 275 275 274 273 270 264 256 252 253 255 259 268 279 289 296 301 304 306 310
332 328 326 326 325 322 318 316 314 313 313 313 312 310 310 308 307 307 306 300 295 289 276 273 270 274 276 275 269 261 249 246 249 251 258 267 279 286 293 297 300 304 313
329 328 326 324 320 318 318 317 317 316 316 316 315 316 316 313 311 310 308 304 298 292 286 272 277 275 271 272 268 254 241 239 246 251 258 267 275 283 289 292 292 293 304
327 326 325 325 324 323 323 321 320 319 318 317 317 318 319 316 314 311 309 306 302 298 292 284 277 273 274 268 262 243 232 238 245 246 254 262 264 274 279 284 288 299 311
332 331 329 328 327 326 326 325 324 323 322 321 319 318 318 315 313 311 308 305 303 300 292 284 278 276 272 264 253 231 228 237 238 240 243 238 241 249 246 246 260 284 311
336 335 334 333 332 330 329 328 327 325 323 322 322 322 323 323 321 319 315 311 306 301 296 285 280 279 279 267 234 229 237 242 239 234 223 215 218 213 206 218 235 304 339
340 338 337 335 334 333 332 332 332 331 331 329 328 326 325 323 321 319 318 315 310 304 296 289 281 272 263 236 226 231 233 228 222 207 192 185 177 165 160 160 129 100 33
343 342 342 341 340 339 337 336 335 333 332 331 329 328 327 326 324 322 320 317 313 308 304 294 276 259 245 235 230 223 217 210 195 181 172 166 160 150 138 128 111 92 63
346 345 344 343 341 340 338 337 335 334 333 332 330 329 327 326 325 323 321 317 312 307 302 286 262 246 232 220 213 205 194 182 172 166 164 160 156 147 143 129 115 104 87